Location: Sobotiste
(48.7170°N, 17.4000°E)
Time: 15:26:23
(UTC+02:00)

Envisat - Visible Passes

Search period start: 21 May 2026 00:00
Search period end: 31 May 2026 00:00
Orbit: 761 x 762 km, 98.4° (Epoch: 21 May)

Date Brightness Start Highest point End Pass type
(mag) Time Alt. Az. Time Alt. Az. Time Alt. Az.
21 May 5.4 02:07:33 10° NE 02:10:18 15° E 02:13:02 10° ESE visible
21 May 3.0 03:44:48 10° NNE 03:49:53 84° WNW 03:54:57 10° SSW visible
22 May 3.8 03:07:06 10° NNE 03:12:00 47° E 03:16:52 10° S visible
23 May 4.9 02:29:54 10° NE 02:33:54 23° E 02:37:51 10° SE visible
23 May 3.3 04:08:11 10° N 04:13:08 54° WNW 04:18:03 10° SW visible
24 May 5.6 01:54:31 10° ENE 01:55:33 11° E 01:56:36 10° E visible
24 May 3.2 03:30:17 10° NNE 03:35:22 75° ESE 03:40:25 10° S visible
25 May 4.2 02:52:44 10° NNE 02:57:23 35° E 03:02:01 10° SSE visible
26 May 5.2 02:15:52 10° NE 02:19:12 17° E 02:22:31 10° SE visible
26 May 3.1 03:53:36 10° N 03:58:40 71° WNW 04:03:41 10° SSW visible
27 May 3.5 03:15:49 10° NNE 03:20:49 56° E 03:25:47 10° S visible
28 May 4.7 02:38:28 10° NE 02:42:45 27° E 02:47:01 10° SSE visible
28 May 3.5 04:17:02 10° N 04:21:52 46° WNW 04:26:41 10° SW visible
29 May 5.4 02:02:11 10° ENE 02:04:29 13° E 02:06:46 10° ESE visible
29 May 3.0 03:39:03 10° NNE 03:44:09 88° ESE 03:49:14 10° SSW visible
30 May 4.0 03:01:24 10° NNE 03:06:13 42° E 03:11:01 10° S visible
